STARLINK-1167, 45071

Orbit data source: Space-Track

STARLINK-1167, 45071 is a payload satellite owned by SpaceX/Seattle (US) in LEO that was launched on Wed, 29 Jan 2020 UTC via an FALCON 9 launch vehicle from the Air Force Eastern Test Range (AFETR). Payload-class satellites include a variety of spacecraft equipped with specific instruments for various scientific and technological missions. These include communications satellites like Starlink; space stations such as the ISS; scientific satellites like the Hubble; Earth observation satellites from companies like Planet Labs, Umbra, and HawkEye 360; GPS; miniature CubeSats for education and research; and military/defense satellites.

Loading next visibility...
Identifier
45071, 2020-006AD
Orbit
LEO
Country
Flag of USUS
Related business
Manufacturer
SpaceX/Seattle
Mission
Partially operational Commercial Communications
Bus & Motor
STARLINK, Unknown motor
Mass
260 kg wet, ~248 kg dry
Launch date (UTC)
2020-01-29 (6 years ago)
Launch vehicle
FALCON 9
Launch site
Air Force Eastern Test Range (AFETR)
Object type
Payload
Rocket body
Debris
Shape & HBR
Box + 1 Pan, 10.1 m
Radar Cross Section
13.562 m², Large (>1 m²)

Expand to show TLE details & history
Last TLE update: 12 hours ago

TLE from 12 hours ago
0 STARLINK-1167
1 45071U 20006AD  26140.43096128  .00032967  00000-0  94679-3 0  9996
2 45071  53.1580 283.4370 0002043 228.6746 131.4082 15.35566556347877
Epoch: 2026-05-20T10:20Z
TLE epoch observation values (Epoch: 2026-05-20T10:20:35.054Z)
Latitude
0.00001°
Longitude
-109.79967°
Altitude
461.064 km
Speed
7.637 km/s
True Right ascension
18h 53m 44s
True Declination
0° 00' 00"
Sunlit
Object was in full shadow at epoch
Visualization orbit readout
Latitude
Unknown
Longitude
Unknown
Altitude
Unknown
Speed
Unknown
Apparent Right ascension
Unknown
Apparent Declination
Unknown
Sunlit
N/A
Visualization observer readout
Local Sidereal Time
06:57:15
Azimuth
Unknown
Elevation
Unknown
Doppler factor
Unknown
Orbital elements
Apogee altitude
460.892 km
Perigee altitude
458.099 km
Semi-major axis
6,837.633 km
Eccentricity
0.0002
Inclination
53.158°
RAAN
283.437°
Arg. of periapsis
228.6746°
True anomaly
131.42576°
Mean anomaly
131.4082°
Eccentric anomaly
131.41698°
Mean motion
3.8387 °/min
Orbital period
93.78 mins
BSTAR
0.00094679
Loading maneuver chart data...
Computing Atmospheric mass density...

Documentation

Showing up to 5 results
|